TimePST,TemperatureF,Dew PointF,Humidity,Sea Level PressureIn,VisibilityMPH,Wind Direction,Wind SpeedMPH,Gust SpeedMPH,PrecipitationIn,Events,Conditions,WindDirDegrees,DateUTC
12:53 AM,12.9,-0.9,54,30.40,10.0,SE,9.2,-,N/A,,Clear,130,2013-02-27 08:53:00
1:53 AM,8.1,-2.9,61,30.41,10.0,North,4.6,-,N/A,,Clear,350,2013-02-27 09:53:00
2:53 AM,14.0,1.0,56,30.39,10.0,West,5.8,-,N/A,,Clear,280,2013-02-27 10:53:00
3:53 AM,9.0,-0.9,64,30.42,10.0,NNE,3.5,-,N/A,,Clear,30,2013-02-27 11:53:00
4:53 AM,10.0,1.0,67,30.43,10.0,Calm,Calm,-,N/A,,Clear,0,2013-02-27 12:53:00
5:53 AM,7.0,-0.9,70,30.47,10.0,NW,5.8,-,N/A,,Clear,310,2013-02-27 13:53:00
6:53 AM,6.1,-4.0,63,30.50,10.0,ESE,4.6,-,N/A,,Clear,110,2013-02-27 14:53:00
7:53 AM,21.0,6.1,53,30.50,10.0,Calm,Calm,-,N/A,,Clear,0,2013-02-27 15:53:00
8:53 AM,26.1,7.0,44,30.49,10.0,Calm,Calm,-,N/A,,Clear,0,2013-02-27 16:53:00
9:53 AM,37.9,8.1,29,30.45,10.0,South,5.8,-,N/A,,Clear,190,2013-02-27 17:53:00
10:53 AM,42.1,9.0,26,30.45,10.0,SSW,8.1,-,N/A,,Clear,200,2013-02-27 18:53:00
11:53 AM,45.0,9.0,23,30.43,10.0,West,6.9,-,N/A,,Clear,260,2013-02-27 19:53:00
12:53 PM,48.0,8.1,20,30.41,10.0,West,8.1,-,N/A,,Clear,260,2013-02-27 20:53:00
1:53 PM,50.0,6.1,17,30.40,10.0,Calm,Calm,-,N/A,,Clear,0,2013-02-27 21:53:00
2:53 PM,52.0,6.1,16,30.36,10.0,North,5.8,-,N/A,,Clear,350,2013-02-27 22:53:00
3:53 PM,53.1,6.1,15,30.35,10.0,Calm,Calm,-,N/A,,Clear,0,2013-02-27 23:53:00
4:53 PM,52.0,5.0,15,30.35,10.0,Calm,Calm,-,N/A,,Clear,0,2013-02-28 00:53:00
5:53 PM,46.9,6.1,19,30.37,10.0,WSW,3.5,-,N/A,,Mostly Cloudy,240,2013-02-28 01:53:00
6:53 PM,42.1,8.1,25,30.40,10.0,Calm,Calm,-,N/A,,Clear,0,2013-02-28 02:53:00
7:53 PM,36.0,7.0,30,30.38,10.0,NNE,4.6,-,N/A,,Clear,20,2013-02-28 03:53:00
8:53 PM,28.9,1.9,32,30.40,10.0,Calm,Calm,-,N/A,,Clear,0,2013-02-28 04:53:00
9:53 PM,25.0,3.0,39,30.40,10.0,NNE,3.5,-,N/A,,Clear,30,2013-02-28 05:53:00
10:53 PM,25.0,3.9,41,30.39,10.0,WSW,4.6,-,N/A,,Clear,250,2013-02-28 06:53:00
11:53 PM,23.0,1.9,40,30.40,10.0,SSE,4.6,-,N/A,,Clear,160,2013-02-28 07:53:00